Regional Weather Roundup
Issued by NWS Northern Indiana

Current Version | Previous Version | Text Only | Print | Product List | Glossary On
Versions: 1 2 3 4 5 6 7 8 9 10 11 12 13 14 15 16 17 18 19 20 21 22 23 24 25 26 27
000
ASUS43 KIWX 301210
RWRIWX

KIWX WEATHER ROUNDUP
NATIONAL WEATHER SERVICE NORTHERN INDIANA
800 AM EDT FRI SEP 30 2022

NOTE: "FAIR" INDICATES FEW OR NO CLOUDS BELOW 12,000 FEET WITH NO
SIGNIFICANT WEATHER AND/OR OBSTRUCTIONS TO VISIBILITY.

* THESE STATIONS ARE NOT UNDER NWS QUALITY CONTROL. THEY ALSO MAY NOT
  REPORT WEATHER SUCH AS PRECIPITATION OR FOG.

INZ001>027-301300-
NORTHERN INDIANA

CITY           SKY/WX    TMP DP  RH WIND       PRES   REMARKS
GARY*          CLEAR     45  43  93 CALM      30.36R
VALPARAISO     CLEAR     41  39  93 NE3       30.35S FOG
6HR MIN TEMP:  40; 6HR MAX TEMP:  45;

MICHIGAN CITY* FOG       37  37 100 CALM      30.36S VSB 1/2
LAPORTE*       CLEAR     37  37 100 CALM      30.36S
6HR MIN TEMP:  37; 6HR MAX TEMP:  41;

KNOX*            N/A     34  34 100 CALM      30.35S VSB 1/2
SOUTH BEND     CLEAR     40  37  89 CALM      30.36S
6HR MIN TEMP:  40; 6HR MAX TEMP:  45;

ELKHART*       CLEAR     40  40 100 CALM      30.37R FOG
GOSHEN         CLEAR     39  39 100 CALM      30.35S FOG
6HR MIN TEMP:  37; 6HR MAX TEMP:  43; 6HR PCP: TRACE;

MONTICELLO*    CLEAR     42  40  95 CALM      30.33R FOG
6HR MIN TEMP:  41; 6HR MAX TEMP:  47;

LOGANSPORT*    CLEAR     41  39  93 CALM      30.34S FOG
ROCHESTER*     CLEAR     37  37 100 CALM      30.34S FOG
PLYMOUTH*      CLEAR     39  37  93 CALM      30.35R FOG
WARSAW*        CLEAR     39  38  97 CALM      30.35R FOG
AUBURN*        CLEAR     39  39 100 CALM      30.36S FOG
FORT WAYNE     PTCLDY    39  37  92 N6        30.35R FOG
6HR MIN TEMP:  37; 6HR MAX TEMP:  42;

HUNTINGTON*    CLEAR     39  39 100 N3        30.34S FOG
6HR MIN TEMP:  38; 6HR MAX TEMP:  44;

PERU/GRISSOM   CLEAR     39  37  93 NE7       30.32R FOG
6HR MIN TEMP:  38; 6HR MAX TEMP:  47;


$$
INZ028>050-301300-
CENTRAL INDIANA

CITY           SKY/WX    TMP DP  RH WIND       PRES   REMARKS
LAFAYETTE      CLEAR     43  40  89 N3        30.33R
6HR MIN TEMP:  41; 6HR MAX TEMP:  49;

KOKOMO*        LGT RAIN  39 N/A N/A N6        30.33S VSB 3/4
                                      6HR PCP: TRACE;

MARION*        CLEAR     38  38 100 NE7       30.33S FOG
6HR MIN TEMP:  36; 6HR MAX TEMP:  91;

MUNCIE*        FOG       37  33  85 CALM      30.31S VSB 1/4
6HR MIN TEMP:  35; 6HR MAX TEMP:  43;

INDIANAPOLIS   PTCLDY    45  42  89 NE7       30.29S
6HR MIN TEMP:  44; 6HR MAX TEMP:  52;


$$
MIZ043>046-050>051-056>058-064>065-071>073-077>080-301300-
SOUTHWEST LOWER MICHIGAN

CITY           SKY/WX    TMP DP  RH WIND       PRES   REMARKS
BATTLE CREEK   CLEAR     39  37  92 CALM      30.37S
6HR MIN TEMP:  39; 6HR MAX TEMP:  45;

BENTON HARBOR  CLEAR     38  37  97 CALM      30.36S FOG
6HR MIN TEMP:  38; 6HR MAX TEMP:  43;

COLDWATER*     CLEAR     39  39  99 CALM      30.36S FOG
6HR MIN TEMP:  35; 6HR MAX TEMP:  42;

HILLSDALE*     CLEAR     36  35  94 NE3       30.36R FOG
6HR MIN TEMP:  35; 6HR MAX TEMP:  39;

HOLLAND        CLEAR     41  39  93 SE3       30.37S
6HR MIN TEMP:  40; 6HR MAX TEMP:  43;

GRAND RAPIDS   PTCLDY    40  38  93 CALM      30.38R
6HR MIN TEMP:  40; 6HR MAX TEMP:  45;

KALAMAZOO      CLEAR     40  38  93 CALM      30.37S
6HR MIN TEMP:  40; 6HR MAX TEMP:  44;

STURGIS*       FOG       40  38  91 CALM      30.36R VSB 1
6HR MIN TEMP:  37; 6HR MAX TEMP:  46;

THREE RIVERS*  FAIR      38  36  93 CALM      30.37S
6HR MIN TEMP:  37; 6HR MAX TEMP:  43;


$$
OHZ001>008-015>018-024>025-301300-
NORTHWEST OHIO

CITY           SKY/WX    TMP DP  RH WIND       PRES   REMARKS
WAUSEON*       CLOUDY    45  45 100 NE5       30.35S FOG
DEFIANCE       CLOUDY    43  41  93 N6        30.35S
6HR MIN TEMP:  39; 6HR MAX TEMP:  43;

FINDLAY        CLEAR     44  40  85 N5        30.32F
6HR MIN TEMP:  40; 6HR MAX TEMP:  47;

OTTAWA*        FAIR      41  37  87 CALM      30.35S
TOLEDO EXPRESS CLOUDY    47  44  90 CALM      30.35S
6HR MIN TEMP:  41; 6HR MAX TEMP:  47;

VAN WERT*      FAIR      36  36 100 CALM      30.34S FOG
LIMA           CLEAR     42  40  92 E3        30.32S
6HR MIN TEMP:  38; 6HR MAX TEMP:  45;


$$
AND FOR LAKE MICHIGAN COASTAL AND OPEN LAKE BUOY OBSERVATIONS

STATION/POSITION TEMP    WIND        PRES    VSBY  WAVE
                 AIR SEA DIR/SP/G                  HT/PER
                 (F)     (DEG/KT/KT) (MB)    (MI)  (FT/S)
CALUMET HARBOR    50     160/  4/  5 1026.9R
MICHIGAN CITY     48                 1027.8R
SAINT JOSEPH      45      CALM  /  2 1028.8
SOUTH LAKE BUOY   58 61  170/ 10/ 12 1027.8F         1/ 3
4 MI NW BRIDGMAN  51 65   80/ 10/ 12 1028.6          1
MICHIGAN CITY     53     180/ 12/ 14   N/A           1

$$
&&



USA.gov is the U.S. government's official web portal to all federal, state and local government web resources and services.